Location: Quedlinburg
(51.7921°N, 11.1414°E)
Time: 13:50:35
(UTC+02:00)

RS-15 - Pass Details

Date: 12 March 2026
Orbit: 1893 x 2152 km, 64.8° (Epoch: 22 April)

Event Time Altitude Azimuth Distance (km) Brightness Sun altitude
Rises 20:16:12 0° 189° (S) 5,262 10.2 -19.3°
Reaches altitude 10° 20:19:34 10° 184° (S) 4,268 9.6 -19.8°
Maximum altitude 20:29:43 48° 114° (ESE) 2,362 8.0 -21.2°
Drops below altitude 10° 20:40:09 10° 45° (NE) 4,388 9.7 -22.7°
Sets 20:43:38 0° 40° (NE) 5,421 10.2 -23.2°
